Home   Weather   Málaga   Past weeks

Flag for Spain Past Weather in Málaga, Spain — Yesterday and Last 2 Weeks

Now
52 °F

Passing clouds.


Feels Like: 46 °F
Forecast: 47 / 62 °F
Wind: 18 mph from Northwest

Location: Malaga / Aeropuerto

Current Time: Jan 21, 2017 at 10:48:16 pm

Latest Report: Jan 21, 2017 at 10:00 pm


Visibility: N/A

Pressure: 30.01 "Hg

Humidity: 58%

Dew Point: 37 °F

Location of MálagaLocation

Past Weather in Málaga — Graph

°F

Málaga Temperature Yesterday

Maximum temperature yesterday: 55 °F (at 3:00 pm)
Minimum temperature yesterday: 43 °F (at 5:00 am)
Average temperature yesterday: 48 °F

High & Low Weather Summary for the Past Weeks

 TemperatureHumidityPressure
High70 °F (Jan 11, 2:00 pm)100% (Jan 12, 7:00 am)30.42 "Hg (Jan 12, 7:00 am)
Low37 °F (Jan 18, 11:00 pm)21% (Jan 18, 8:30 am)29.86 "Hg (Jan 19, 6:00 pm)
Average53 °F61%30.17 "Hg
* Reported Jan 6 9:00 pm — Jan 21 9:30 pm, Málaga, Weather by CustomWeather, © 2017

Note: Actual official high and low records may vary slightly from our data, if they occured in-between our weather recording intervals... More about our weather records

Advertising

Málaga Weather History for the Previous 24 Hours

Scroll right to see more
 ConditionsComfort  
Time TempWeatherWind HumidityBarometerVisibility
9:30 pm
Sat, Jan 21
54 °FPassing clouds.17 mph54%30.01 "HgN/A
9:00 pm52 °FPassing clouds.13 mph62%30.01 "HgN/A
8:30 pm52 °FPassing clouds.14 mph62%30.01 "HgN/A
8:00 pm52 °FPassing clouds.16 mph62%30.01 "HgN/A
7:30 pm54 °FPassing clouds.17 mph58%29.98 "HgN/A
7:00 pm54 °FPassing clouds.20 mph54%29.98 "HgN/A
6:30 pm54 °FPassing clouds.16 mph63%29.98 "HgN/A
6:00 pm55 °FPassing clouds.17 mph55%29.98 "HgN/A
5:30 pm55 °FPassing clouds.18 mph55%29.98 "HgN/A
5:00 pm57 °FPassing clouds.21 mph51%29.95 "HgN/A
4:30 pm57 °FPassing clouds.21 mph51%29.95 "HgN/A
4:00 pm57 °FPassing clouds.20 mph51%29.95 "HgN/A
3:30 pm57 °FPassing clouds.17 mph51%29.95 "HgN/A
3:00 pm57 °FPassing clouds.18 mph51%29.95 "HgN/A
2:30 pm57 °FPassing clouds.21 mph51%29.98 "HgN/A
2:00 pm55 °FPassing clouds.20 mph59%29.98 "HgN/A
1:48 pm55 °FPassing clouds.18 mph59%29.98 "HgN/A
1:30 pm55 °FPassing clouds.20 mph55%29.98 "HgN/A
1:00 pm54 °FPassing clouds.18 mph58%29.98 "HgN/A
12:30 pm54 °FPassing clouds.18 mph54%30.01 "HgN/A
12:00 pm52 °FPassing clouds.18 mph58%30.01 "HgN/A
11:30 am52 °FPassing clouds.17 mph62%30.04 "HgN/A
11:00 am50 °FPassing clouds.18 mph62%30.04 "HgN/A
10:30 am50 °FPassing clouds.20 mph62%30.01 "HgN/A
10:00 am48 °FPassing clouds.16 mph66%30.01 "HgN/A
9:30 am46 °FPassing clouds.18 mph71%30.01 "HgN/A
9:00 am46 °FSunny.18 mph66%30.01 "Hg10 mi
8:30 am46 °FSunny.17 mph66%30.01 "Hg10 mi
8:00 am46 °FClear.14 mph71%30.01 "Hg10 mi
7:30 am46 °FClear.15 mph66%30.01 "Hg10 mi
7:00 am46 °FClear.15 mph66%30.01 "Hg10 mi
6:30 am45 °FPassing clouds.14 mph71%30.01 "HgN/A
6:00 am46 °FPassing clouds.13 mph71%30.01 "HgN/A
5:30 am45 °FPassing clouds.12 mph71%30.01 "HgN/A
5:00 am46 °FPassing clouds.15 mph71%30.01 "HgN/A
4:30 am46 °FPassing clouds.13 mph71%30.01 "HgN/A
4:00 am45 °FPassing clouds.9 mph76%30.01 "HgN/A
3:30 am46 °FPassing clouds.10 mph71%30.01 "HgN/A
3:00 am43 °FPassing clouds.8 mph81%30.04 "HgN/A
2:30 am45 °FPassing clouds.8 mph76%30.01 "HgN/A
1:30 am45 °FPassing clouds.7 mph81%30.04 "HgN/A
1:00 am46 °FPassing clouds.8 mph71%30.04 "HgN/A
12:30 am48 °FPassing clouds.9 mph66%30.04 "HgN/A
12:00 am48 °FPassing clouds.8 mph66%30.04 "HgN/A
11:30 pm
Fri, Jan 20
46 °FPassing clouds.9 mph76%30.04 "HgN/A
11:00 pm48 °FPassing clouds.10 mph66%30.04 "HgN/A
10:30 pm48 °FPassing clouds.9 mph66%30.04 "HgN/A
10:00 pm48 °FPassing clouds.10 mph66%30.04 "HgN/A
Weather by CustomWeather, © 2017

See weather overviewHow to use our weather pages